Regional Weather Roundup
Issued by NWS Portland, ME

Current Version | Previous Version | Text Only | Print | Product List | Glossary Off
Versions: 1 2 3 4 5 6 7 8 9 10 11 12 13 14 15 16 17 18 19 20 21 22 23 24 25 26 27 28 29 30 31 32 33 34 35 36 37 38 39 40 41 42 43 44 45 46 47 48 49 50
000 ASUS41 KGYX 062310 RWRGYX WEATHER ROUNDUP FOR MAINE AND NEW HAMPSHIRE NATIONAL WEATHER SERVICE GRAY ME 600 PM EST SAT FEB 06 2016 MEZ002-005-006-010-012-015-018-020-021-024-026-027-029-070000- MAINE CITY SKY/WX TMP DP RH WIND PRES REMARKS PORTLAND PTCLDY 33 26 75 S10 30.21S SANFORD CLEAR 30 23 74 S7 30.21S BAR HARBOR CLEAR 34 27 75 SW9 30.20S WISCASSET CLEAR 33 27 78 SW5 30.22R ROCKLAND MOCLDY 34 25 69 SW12 30.20S FRYEBURG CLOUDY 34 24 67 S5 30.16R LEWISTONAUBURN CLEAR 30 23 74 S9 30.17S AUGUSTA PTCLDY 30 24 78 S7 30.17R WATERVILLE CLEAR 30 24 78 VRB3 30.13S BANGOR MOCLDY 31 23 72 S7 30.17S GREENVILLE N/A 26 21 81 S6 30.03F MILLINOCKET CLOUDY 29 21 72 SE3 30.12F HOULTON CLOUDY 25 19 78 S6 30.10F PRESQUE ISLE FLURRIES 25 19 78 S12 30.09S WCI 14 FRENCHVILLE CLOUDY 24 12 60 S7 30.01S CARIBOU CLOUDY 27 15 61 S9 30.06S $$ NHZ002-005-008-009-011-012-014-070000- NEW HAMPSHIRE CITY SKY/WX TMP DP RH WIND PRES REMARKS PORTSMOUTH PTCLDY 31 24 74 S9 30.22R ROCHESTER CLOUDY 31 25 78 S3 30.21R NASHUA CLEAR 34 25 69 VRB5 30.24R MANCHESTER PTCLDY 33 24 69 S10 30.21R CONCORD CLOUDY 34 23 64 S10 30.20R LACONIA CLOUDY 36 18 48 SW8 30.17R PLYMOUTH CLOUDY 36 20 53 SW3 30.15R BERLIN MOCLDY 34 19 54 SW7 30.08S WHITEFIELD PTCLDY 34 19 54 VRB7 30.10S JAFFREY MOCLDY 28 17 63 S5 30.18R KEENE PTCLDY 30 19 64 S3 30.21R LEBANON CLOUDY 37 21 52 S7 30.15S MT WASHINGTON SNOW 9 9 100 SW39 N/A VSB 0 WCI -17 $$ VTZ005-007-008-070000- VERMONT CITY SKY/WX TMP DP RH WIND PRES REMARKS ST JOHNSBURY N/A 36 18 48 MISG 30.10S MONTPELIER CLOUDY 32 19 58 SW10 30.14R BURLINGTON CLOUDY 37 21 52 SW8 30.13R $$ MAZ007-012-024-CTZ003-RIZ002-NYZ038-NYZ072-070000- SOUTHERN NEW ENGLAND AND NY CITY SKY/WX TMP DP RH WIND PRES REMARKS BOSTON CLOUDY 33 25 72 SW12 30.27S WORCESTER CLEAR 28 21 75 S9 30.22R NANTUCKET MOCLDY 36 26 67 W12 30.32S PROVIDENCE MOCLDY 32 23 69 SW8 30.30S HARTFORD PTCLDY 33 22 63 S9 30.25R ALBANY MOCLDY 40 17 39 VRB3 30.20R NEW YORK CITY MOCLDY 40 18 41 SW7 30.29S $$ ANZ081-ANZ082-ANZ150-NHZ014-MEZ023>029-070000- COASTAL MARINE OBSERVATIONS STATION/POSITION TIME TEMP WIND PRES WAVE AIR SEA DIR/SP/G HT/PER (UTC) (F) (DEG/KT/KT) (MB) (FT/S) MOUNT DESERT ROC 2300 37 210/ 29/ 31 1023.1R MATINICUS ROCK 2300 230/ 28/ 31 1023.0S ISLE OF SHOALS 2300 35 210/ 24/ 25 1023.2R JEFFREYS LEDGE 2204 44 N/A 4/ 4 CASHES LEDGE BUO 2250 38 44 220/ 19/ 25 1023.6F 5/ 5 GEORGES BANK BUO 2250 38 45 1027.6R 7/ 8 $$ .............KEY.............. WCI - WIND CHILL TC - TEMPERATURE IN CELSIUS VSB - VISIBILITY IN MILES HX - HEAT INDEX FAIR- INDICATES FEW OR NO CLOUDS BELOW 12,000 FT, WITH NO SIGNIFICANT WEATHER AND/OR OBSTRUCTIONS TO VISIBILITY.

USA.gov is the U.S. government's official web portal to all federal, state and local government web resources and services.